Flag for United Kingdom Weather past 2 weeks in Cheltenham, England, United Kingdom

Now
63 °F

Scattered showers. Passing clouds.


Feels Like: 63 °F
Forecast: 47 / 69 °F
Wind: 8 mph from West

Location: Staverton Private

Current Time: Jul 8, 2015 at 8:42:04 AM

Latest Report: Jul 8, 2015 at 8:20 AM


Visibility: N/A

Pressure: 29.80 "Hg

Humidity: 73%

Dew point: 54 °F

Location of CheltenhamLocation

Historic Weather in Cheltenham — Graph

°F

Cheltenham temperature yesterday

Maximum temperature yesterday: 72 °F (at 1:20 PM)
Minimum temperature yesterday: 63 °F (at 8:20 AM)
Average temperature yesterday: 67 °F

Past Weeks' High & Low Weather Summary

 TemperatureHumidityPressure
High91 °F (Jul 1, 5:50 PM)94% (Jun 28, 8:50 AM)30.30 "Hg (Jun 28, 8:50 AM)
Low55 °F (Jun 23, 7:20 AM)32% (Jun 30, 12:50 PM)29.74 "Hg (Jul 7, 9:20 AM)
Average69 °F62%30.04 "Hg
* Reported Jun 23 7:20 AM — Jul 8 7:20 AM, Cheltenham, Weather by CustomWeather, © 2015

Note: Actual official high and low records may vary slightly from our data, if they occured in-between our weather recording intervals... More about our weather records

Advertising

Cheltenham weather history for previous 24 hours

 ConditionsComfort  
Time TempWeatherWind HumidityBarometerVisibility
7:20 AM
Wed, Jul 8
61 °FScattered clouds.6 mph77%29.77 "HgN/A
6:50 AM59 °FScattered clouds.7 mph82%29.77 "HgN/A
7:20 PM
Tue, Jul 7
64 °FPassing clouds.12 mph56%29.74 "HgN/A
6:50 PM66 °FPassing clouds.17 mph56%29.74 "HgN/A
6:20 PM66 °FPassing clouds.14 mph56%29.74 "HgN/A
5:50 PM66 °FPassing clouds.15 mph52%29.74 "HgN/A
5:20 PM70 °FScattered clouds.16 mph50%29.74 "HgN/A
4:50 PM68 °FScattered clouds.15 mph49%29.74 "HgN/A
4:20 PM68 °FScattered clouds.14 mph56%29.74 "HgN/A
3:50 PM68 °FScattered clouds.12 mph56%29.74 "HgN/A
3:20 PM68 °FScattered clouds.16 mph53%29.74 "HgN/A
2:50 PM66 °FSprinkles. Scattered clouds.13 mph56%29.74 "HgN/A
2:20 PM72 °FScattered clouds.17 mph44%29.74 "HgN/A
1:50 PM70 °FScattered clouds.13 mph50%29.74 "HgN/A
1:20 PM72 °FScattered clouds.12 mph47%29.74 "HgN/A
12:50 PM66 °FScattered clouds.12 mph60%29.74 "HgN/A
12:20 PM66 °FScattered clouds.15 mph60%29.74 "HgN/A
11:50 AM68 °FScattered clouds.14 mph64%29.74 "HgN/A
11:20 AM68 °FScattered showers. Scattered clouds.13 mph69%29.74 "HgN/A
10:50 AM64 °FSprinkles. Scattered clouds.14 mph78%29.74 "HgN/A
10:20 AM66 °FScattered showers. Scattered clouds.12 mph73%29.74 "HgN/A
9:50 AM64 °FScattered showers. Scattered clouds.8 mph83%29.74 "HgN/A
9:20 AM64 °FScattered showers. Passing clouds.8 mph78%29.74 "HgN/A
8:50 AM64 °FScattered showers. Scattered clouds.8 mph78%29.77 "HgN/A
8:20 AM63 °FPartly sunny.6 mph88%29.77 "HgN/A
Weather by CustomWeather, © 2015

See weather overviewHow to use our weather pages